Location: Monteux
(44.0348°N, 4.9972°E)
Time: 18:05:10
(UTC+00:00)

Cosmos 1867 - Pass Details

Date: 30 November 2020
Orbit: 776 x 800 km, 65.0° (Epoch: 23 January)

Event Time Altitude Azimuth Distance (km) Brightness Sun altitude
Rises 17:01:58 0° 231° (SW) 3,268 8.4 -10.4°
Reaches altitude 10° 17:04:28 10° 238° (WSW) 2,347 7.5 -10.8°
Maximum altitude 17:09:39 46° 311° (NW) 1,052 4.4 -11.7°
Drops below altitude 10° 17:14:54 10° 25° (NNE) 2,374 5.6 -12.5°
Enters shadow 17:15:36 - 27° (NNE) 2,623 5.8 -12.7°
